Location: Tr�vern
(48.0333°N, 4.6000°W)
Time: 01:52:11
(UTC+00:00)

Cosmos 1869 Rocket - Pass Details

Date: 14 July 2020
Orbit: 605 x 633 km, 82.5° (Epoch: 04 August)

Event Time Altitude Azimuth Distance (km) Brightness Sun altitude
Exits shadow 02:04:43 32° 188° (S) 1,048 4.2 -16.8°
Maximum altitude 02:06:42 90° 259° (W) 614 3.5 -16.7°
Drops below altitude 10° 02:11:04 10° 9° (N) 1,972 7.3 -16.3°
Sets 02:13:18 0° 10° (N) 2,885 8.5 -16.2°
